Flag for Dominican Republic Weather past 2 weeks in Punta Cana, Dominican Republic

Now
81 °F

Passing clouds.


Feels Like: 85 °F
Forecast: 79 / 87 °F
Wind: 12 mph from Southeast

Location: Punta Cana

Current Time: May 24, 2015 at 2:22:13 AM

Latest Report: May 24, 2015 at 2:00 AM


Visibility: N/A

Pressure: 30.07 "Hg

Humidity: 79%

Dew point: 73 °F

Location of Punta CanaLocation

Historic Weather in Punta Cana — Graph

°F

Punta Cana temperature yesterday

Maximum temperature yesterday: 88 °F (at 12:00 PM)
Minimum temperature yesterday: 75 °F (at 3:00 AM)
Average temperature yesterday: 81 °F

Past Weeks' High & Low Weather Summary

 TemperatureHumidityPressure
High88 °F (May 9, 1:00 PM)100% (May 9, 10:00 PM)30.15 "Hg (May 9, 10:00 PM)
Low73 °F (May 9, 10:00 PM)52% (May 9, 1:00 PM)29.95 "Hg (May 20, 4:00 PM)
Average81 °F78%30.05 "Hg
* Reported May 9 1:00 AM — May 24 1:00 AM, Punta Cana, Weather by CustomWeather, © 2015

Note: Actual official high and low records may vary slightly from our data, if they occured in-between our weather recording intervals... More about our weather records

Advertising

Punta Cana weather history for previous 24 hours

 ConditionsComfort  
Time TempWeatherWind HumidityBarometerVisibility
1:00 AM
Sun, May 24
81 °FPassing clouds.6 mph84%30.07 "HgN/A
12:00 AM79 °FPassing clouds.5 mph84%30.09 "HgN/A
11:00 PM
Sat, May 23
79 °FPassing clouds.3 mph89%30.09 "HgN/A
10:00 PM75 °FPassing clouds.2 mph89%30.09 "HgN/A
9:00 PM75 °FPassing clouds.2 mph94%30.09 "HgN/A
8:00 PM77 °FPassing clouds.5 mph89%30.07 "HgN/A
7:00 PM79 °FBroken clouds.9 mph84%30.07 "HgN/A
6:00 PM82 °FScattered clouds.8 mph79%30.07 "HgN/A
5:00 PM84 °FScattered clouds.8 mph74%30.07 "HgN/A
4:00 PM86 °FScattered clouds.8 mph70%30.07 "HgN/A
3:00 PM88 °FPassing clouds.9 mph66%30.07 "HgN/A
2:00 PM88 °FPassing clouds.7 mph66%30.09 "HgN/A
1:00 PM88 °FPassing clouds.12 mph66%30.12 "HgN/A
12:00 PM88 °FPassing clouds.12 mph66%30.12 "HgN/A
11:00 AM86 °FScattered clouds.14 mph70%30.15 "HgN/A
10:00 AM84 °FScattered clouds.12 mph74%30.12 "HgN/A
9:00 AM84 °FScattered clouds.12 mph74%30.12 "HgN/A
8:00 AM82 °FScattered clouds.6 mph79%30.09 "HgN/A
7:00 AM77 °FBroken clouds.No wind100%30.09 "HgN/A
6:00 AM75 °FScattered clouds.No wind100%30.07 "HgN/A
5:00 AM77 °FPassing clouds.No wind94%30.07 "HgN/A
4:00 AM75 °FPassing clouds.No wind94%30.07 "HgN/A
3:00 AM75 °FPassing clouds.No wind100%30.07 "HgN/A
2:00 AM77 °FPassing clouds.No wind94%30.07 "HgN/A
Weather by CustomWeather, © 2015

See weather overviewHow to use our weather pages